This is the latest recevied weather packets stored in our database for station/object EB1HRW. If no packets are shown the sender has not sent any weather packets the latest 10 day(s).
| Time | Temp. | Humidity | Pressure | Rain* | Wind** | Luminosity | Snow |
|---|---|---|---|---|---|---|---|
| 1777988338 | 13.89° C | 55% | 1013 hPa | 0 mm | - | - | - |
| 1777987437 | 13.89° C | 57% | 1013 hPa | 0 mm | - | - | - |
| 1777986539 | 13.89° C | 55% | 1013.1 hPa | 0 mm | - | - | - |
| 1777985638 | 13.33° C | 56% | 1013.2 hPa | 0 mm | - | - | - |
| 1777984737 | 13.33° C | 57% | 1013.3 hPa | 0 mm | - | - | - |
| 1777983839 | 13.33° C | 57% | 1013.4 hPa | 0 mm | - | - | - |
| 1777982939 | 12.78° C | 57% | 1013.4 hPa | 0 mm | - | - | - |
| 1777982037 | 12.78° C | 58% | 1013.6 hPa | 0 mm | - | - | - |
| 1777981138 | 12.78° C | 61% | 1013.7 hPa | 0 mm | - | - | - |
| 1777980239 | 12.78° C | 62% | 1013.8 hPa | 0 mm | - | - | - |
| 1777979337 | 12.22° C | 63% | 1014 hPa | 0 mm | - | - | - |
| 1777978438 | 12.22° C | 63% | 1014 hPa | 0 mm | - | - | - |
| 1777977539 | 11.67° C | 63% | 1014 hPa | 0 mm | - | - | - |
| 1777976637 | 11.67° C | 65% | 1014 hPa | 0 mm | - | - | - |
| 1777975738 | 11.67° C | 67% | 1014 hPa | 0 mm | - | - | - |
| 1777974838 | 11.11° C | 67% | 1014 hPa | 0 mm | - | - | - |
| 1777973937 | 11.11° C | 70% | 1014 hPa | 0 mm | - | - | - |
| 1777973038 | 11.11° C | 69% | 1014 hPa | 0 mm | - | - | - |
| 1777972138 | 11.67° C | 72% | 1014 hPa | 0 mm | - | - | - |
| 1777971237 | 11.11° C | 72% | 1014 hPa | 0 mm | - | - | - |
| 1777970338 | 10.56° C | 75% | 1014 hPa | 0 mm | - | - | - |
| 1777969438 | 10.56° C | 77% | 1014.1 hPa | 0 mm | - | - | - |
| 1777968537 | 9.44° C | 79% | 1014.2 hPa | 0 mm | - | - | - |
| 1777967639 | 10° C | 81% | 1014.2 hPa | 0 mm | - | - | - |
| 1777966737 | 8.89° C | 84% | 1014.3 hPa | 0 mm | - | - | - |
* Rain latest hour (hover to see other rain measurements)
** Current wind speed in m/s (hover to see current wind gust speed)